Home   Weather   Fort Collins   Past weeks

Flag for USA Past Weather in Fort Collins, Colorado, USA — Yesterday and Last 2 Weeks

Now
59 °F

Sunny.


Feels Like: 58 °F
Forecast: 50 / 78 °F
Wind: 7 mph from North

Location: Fort Collins-Loveland Municipal Airport

Current Time: Sep 28, 2016 at 9:21:05 AM

Latest Report: Sep 28, 2016 at 8:55 AM


Visibility: 10 mi

Pressure: 30.34 "Hg (25.33 "Hg at 1522m altitude)

Humidity: 42%

Dew Point: 36 °F

Location of Fort CollinsLocation

Past Weather in Fort Collins — Graph

°F

Fort Collins Temperature Yesterday

Maximum temperature yesterday: 82 °F (at 2:55 PM)
Minimum temperature yesterday: 45 °F (at 4:35 AM)
Average temperature yesterday: 63 °F

High & Low Weather Summary for the Past Weeks

 TemperatureHumidityPressure
High91 °F (Sep 19, 2:15 PM)100% (Sep 13, 10:15 AM)30.48 "Hg (Sep 13, 10:15 AM)
Low34 °F (Sep 23, 5:35 AM)11% (Sep 19, 2:15 PM)29.64 "Hg (Sep 23, 3:15 PM)
Average61 °F49%30.13 "Hg
* Reported Sep 13 8:15 AM — Sep 28 8:15 AM, Fort Collins, Weather by CustomWeather, © 2016

Note: Actual official high and low records may vary slightly from our data, if they occured in-between our weather recording intervals... More about our weather records

Advertising

Fort Collins Weather History for the Previous 24 Hours

Scroll right to see more
 ConditionsComfort  
Time TempWeatherWind HumidityBarometerVisibility
8:15 AM
Wed, Sep 28
54 °FSunny.6 mph51%30.33 "Hg10 mi
7:55 AM52 °FSunny.No wind54%30.32 "Hg10 mi
7:35 AM46 °FSunny.No wind62%30.31 "Hg10 mi
7:15 AM48 °FSunny.6 mph58%30.30 "Hg10 mi
6:55 AM48 °FSunny.9 mph58%30.29 "Hg10 mi
6:35 AM50 °FClear.10 mph54%30.28 "Hg10 mi
6:15 AM50 °FClear.7 mph54%30.29 "Hg10 mi
5:55 AM52 °FClear.5 mph50%30.27 "Hg10 mi
5:35 AM48 °FClear.3 mph62%30.27 "Hg10 mi
5:15 AM46 °FClear.5 mph62%30.26 "Hg10 mi
4:55 AM50 °FClear.7 mph54%30.26 "Hg10 mi
4:35 AM48 °FClear.6 mph58%30.25 "Hg10 mi
4:15 AM50 °FClear.No wind54%30.25 "Hg10 mi
3:55 AM50 °FClear.3 mph54%30.24 "Hg10 mi
3:35 AM52 °FClear.7 mph50%30.24 "Hg10 mi
3:15 AM52 °FClear.8 mph50%30.24 "Hg10 mi
2:55 AM52 °FClear.6 mph50%30.23 "Hg10 mi
2:35 AM54 °FClear.7 mph47%30.23 "Hg10 mi
2:15 AM54 °FClear.8 mph47%30.22 "Hg10 mi
1:55 AM54 °FClear.9 mph51%30.22 "Hg10 mi
1:35 AM55 °FClear.8 mph44%30.22 "Hg10 mi
1:15 AM54 °FClear.5 mph51%30.21 "Hg10 mi
12:55 AM54 °FClear.3 mph51%30.21 "Hg10 mi
12:35 AM52 °FClear.No wind54%30.21 "Hg10 mi
12:15 AM55 °FClear.3 mph47%30.21 "Hg10 mi
11:55 PM
Tue, Sep 27
57 °FClear.7 mph44%30.20 "Hg10 mi
11:35 PM59 °FClear.8 mph42%30.20 "Hg10 mi
11:15 PM61 °FClear.10 mph39%30.20 "Hg10 mi
10:55 PM61 °FClear.9 mph42%30.19 "Hg10 mi
10:35 PM63 °FClear.9 mph39%30.18 "Hg10 mi
10:15 PM61 °FClear.9 mph42%30.17 "Hg10 mi
9:55 PM59 °FClear.7 mph42%30.17 "Hg10 mi
9:35 PM57 °FClear.7 mph44%30.16 "Hg10 mi
9:15 PM68 °FClear.No wind30%30.16 "Hg10 mi
8:55 PM68 °FClear.No wind30%30.15 "Hg10 mi
8:35 PM70 °FClear.No wind27%30.14 "Hg10 mi
8:15 PM72 °FClear.No wind25%30.13 "Hg10 mi
7:55 PM72 °FClear.3 mph25%30.12 "Hg10 mi
7:35 PM72 °FClear.5 mph25%30.11 "Hg10 mi
7:15 PM73 °FClear.3 mph23%30.10 "Hg10 mi
6:55 PM73 °FClear.3 mph22%30.09 "Hg10 mi
6:15 PM79 °FSunny.3 mph17%30.09 "Hg10 mi
5:55 PM79 °FSunny.6 mph17%30.08 "Hg10 mi
5:35 PM81 °FSunny.7 mph17%30.09 "Hg10 mi
5:15 PM81 °FSunny.6 mph17%30.08 "Hg10 mi
4:55 PM81 °FSunny.7 mph17%30.08 "Hg10 mi
4:35 PM81 °FSunny.6 mph17%30.09 "Hg10 mi
4:15 PM81 °FSunny.7 mph17%30.09 "Hg7 mi
3:55 PM81 °FSunny.6 mph17%30.09 "Hg10 mi
3:35 PM81 °FSunny.6 mph18%30.10 "Hg6 mi
3:15 PM82 °FSunny.3 mph17%30.10 "Hg5 mi
2:55 PM82 °FSunny.8 mph17%30.10 "Hg2 mi
2:35 PM81 °FSunny.No wind18%30.11 "Hg5 mi
2:15 PM81 °FSunny.No wind18%30.12 "Hg2 mi
1:55 PM81 °FSunny.8 mph20%30.13 "Hg1 mi
1:35 PM79 °FSunny.7 mph21%30.14 "Hg5 mi
1:15 PM79 °FSunny.6 mph21%30.15 "Hg3 mi
12:55 PM77 °FSunny.6 mph24%30.16 "Hg3 mi
12:35 PM75 °FSunny.7 mph25%30.17 "Hg7 mi
12:15 PM73 °FSunny.5 mph25%30.18 "Hg10 mi
11:55 AM73 °FSunny.6 mph27%30.19 "Hg4 mi
11:35 AM72 °FSunny.No wind29%30.21 "Hg7 mi
11:15 AM70 °FSunny.6 mph31%30.21 "Hg10 mi
10:55 AM68 °FSunny.6 mph33%30.23 "Hg10 mi
10:35 AM66 °FSunny.5 mph35%30.24 "Hg10 mi
10:15 AM64 °FSunny.5 mph37%30.24 "Hg10 mi
9:55 AM63 °FSunny.5 mph39%30.24 "Hg10 mi
9:35 AM61 °FSunny.6 mph45%30.24 "Hg10 mi
9:15 AM57 °FSunny.6 mph51%30.25 "Hg10 mi
Weather by CustomWeather, © 2016

See weather overviewHow to use our weather pages